FW9827 Weather Reports


time (UTC)temp
F
wind
direction
speed
knots
gust
knots
rain 1hr
in
rain 24hr
in
rain mn
in
humidity
%
barometer
mb
20260505011536 49 222 0.9 9.6 0.00 0.00 0.00 82 1008.2
20260505004534 48 0 0.0 3.5 0.00 0.00 0.00 82 1008.0
20260505003048 48 0 0.9 3.5 0.00 0.00 0.00 80 1007.7
20260505001541 49 0 0.9 3.5 0.00 0.00 0.00 78 1007.6
20260505000045 49 189 1.7 6.1 0.00 0.00 0.00 77 1007.5
20260504234539 50 0 0.9 4.3 0.00 0.00 0.00 76 1007.4
20260504233041 51 250 0.9 3.5 0.00 0.00 0.00 74 1007.1
20260504231536 52 175 0.9 4.3 0.00 0.00 0.00 72 1007.0
20260504230100 53 196 2.6 7.0 0.00 0.00 0.00 70 1006.8
20260504224556 54 225 1.7 3.5 0.00 0.00 0.00 68 1006.6
20260504223036 55 220 0.9 7.0 0.00 0.00 0.00 66 1006.6
20260504221535 57 202 0.9 4.3 0.00 0.00 0.00 64 1006.6
20260504220038 59 192 1.7 4.3 0.00 0.00 0.00 60 1006.7
20260504214546 62 163 2.6 5.2 0.00 0.00 0.00 56 1006.6
20260504213040 63 169 2.6 8.7 0.00 0.00 0.00 55 1006.5
20260504211541 64 163 1.7 6.1 0.00 0.00 0.00 55 1006.5
20260504210050 65 41 1.7 4.3 0.00 0.00 0.00 53 1006.3
20260504204548 65 101 1.7 5.2 0.00 0.00 0.00 52 1006.3
20260504203045 65 301 1.7 4.3 0.00 0.00 0.00 49 1006.3
20260504201547 64 279 2.6 7.0 0.00 0.00 0.00 50 1006.2
20260504200050 64 344 2.6 7.8 0.00 0.00 0.00 50 1006.2
20260504194539 63 348 0.9 4.3 0.00 0.00 0.00 52 1006.3
20260504193037 62 200 1.7 4.3 0.00 0.00 0.00 54 1006.4
20260504191552 60 0 0.9 3.5 0.00 0.00 0.00 61 1006.7
20260504190042 58 237 0.9 2.6 0.00 0.00 0.00 60 1006.9
20260504184541 58 209 1.7 6.1 0.00 0.00 0.00 58 1006.7
20260504183038 58 236 1.7 7.0 0.00 0.00 0.00 58 1006.6
20260504181535 57 205 2.6 7.0 0.00 0.00 0.00 61 1006.8
20260504180034 57 221 0.9 7.0 0.00 0.00 0.00 61 1006.8
20260504174541 58 179 4.3 11.3 0.00 0.02 0.00 57 1006.5
20260504173039 58 148 7.0 17.4 0.00 0.02 0.00 54 1006.4
20260504171539 61 225 7.0 17.4 0.00 0.02 0.00 51 1006.3
20260504081539 36 0 0.0 0.0 0.00 0.33 0.00 86 1008.7
20260504044543 38 0 0.0 0.0 0.00 0.34 0.00 77 1008.3
20260504043053 39 0 0.0 1.7 0.00 0.34 0.00 76 1008.4
20260504041536 39 0 0.0 1.7 0.00 0.34 0.00 74 1008.4
20260504040034 41 0 0.0 0.9 0.00 0.34 0.00 72 1008.3
20260504034547 42 0 0.0 2.6 0.00 0.34 0.34 68 1008.2
20260504033040 43 256 0.0 3.5 0.00 0.34 0.34 64 1008.1
20260504031549 43 286 1.7 6.1 0.00 0.34 0.34 63 1008.0
20260504030050 44 0 2.6 8.7 0.00 0.34 0.34 62 1007.9
20260504024539 44 309 2.6 7.0 0.00 0.34 0.34 62 1007.9
20260504023035 44 302 0.9 6.1 0.00 0.34 0.34 61 1007.8
20260504021547 44 281 0.9 4.3 0.00 0.34 0.34 60 1007.7
20260504020040 45 261 0.9 7.8 0.00 0.34 0.34 59 1007.6
20260504014540 45 0 0.9 7.8 0.00 0.34 0.34 58 1007.4
20260504013038 45 304 1.7 7.8 0.00 0.34 0.34 58 1007.4